Weather History for Melfa, VA

Change the Weather History Date:

Tuesday, January 21, 2014

  Actual Average (KWAL) Record (KWAL)
Temperature  
Mean Temperature 38 °F 36 °F  
Max Temperature 51 °F 45 °F 64 °F (1990)
Min Temperature 23 °F 28 °F 0 °F (1985)
Degree Days  
Heating Degree Days 28    
Month to date heating degree days  
Since 1 July heating degree days  
Cooling Degree Days 0    
Month to date cooling degree days  
Year to date cooling degree days  
Moisture  
Dew Point 32 °F    
Average Humidity 72    
Maximum Humidity 87    
Minimum Humidity 57    
Precipitation  
Precipitation 0.03 in 0.10 in 0.66 in (2012)
Month to date precipitation 2.06  
Year to date precipitation 2.06  
Sea Level Pressure  
Sea Level Pressure 29.72 in    
Wind  
Wind Speed 11 mph (NE)    
Max Wind Speed 22 mph    
Max Gust Speed 38 mph    
Visibility 8 miles    
Events Snow    
T = Trace of Precipitation, MM = Missing Value Source: NWS Daily Summary

Daily Weather History Graph

Daily Weather History Graph

Search for Another Location

Airport:

Trip Planner

Search our weather history database for the weather conditions in past years. The results will help you decide how hot, cold, wet, or windy it might be!

Date:

Astronomy

Jan. 21, 2014 Rise Set
Actual Time 7:14 AM EST 5:14 PM EST
Civil Twilight 6:46 AM EST 5:43 PM EST
Nautical Twilight 6:14 AM EST 6:14 PM EST
Astronomical Twilight 5:43 AM EST 6:46 PM EST
Moon 10:38 PM EST (1/21) 9:49 AM EST (1/21)
Length of Visible Light 10h 56m
Length of Day
10h 00m
Waning Gibbous, 75% of the Moon is Illuminated
Jan 21
Waning Gibbous
Jan 24
Last Quarter
Jan 30
New
Feb 6
First Quarter
Feb 14
Full

Hourly Weather History & Observations

Time (EST) Temp. Windchill Dew Point Humidity Pressure Visibility Wind Dir Wind Speed Gust Speed Precip Events Conditions
12:15 AM 42.8 °F 39.3 °F 30.2 °F 61% 29.89 in 10.0 mi NE 5.8 mph - N/A   Clear
12:35 AM 42.8 °F 38.6 °F 30.2 °F 61% 29.88 in 10.0 mi NE 6.9 mph - N/A   Clear
12:55 AM 42.8 °F 38.6 °F 30.2 °F 61% 29.88 in 10.0 mi NE 6.9 mph - N/A   Clear
1:15 AM 42.8 °F 38.6 °F 30.2 °F 61% 29.87 in 10.0 mi NE 6.9 mph - N/A   Clear
1:35 AM 42.8 °F 38.6 °F 28.4 °F 57% 29.86 in 10.0 mi NE 6.9 mph - N/A   Clear
1:55 AM 42.8 °F 38.6 °F 28.4 °F 57% 29.86 in 10.0 mi NE 6.9 mph - N/A   Clear
2:15 AM 42.8 °F 38.0 °F 28.4 °F 57% 29.86 in 10.0 mi NE 8.1 mph - N/A   Clear
2:36 AM 42.8 °F 37.0 °F 28.4 °F 57% 29.86 in 10.0 mi NE 10.4 mph - N/A   Clear
2:55 AM 42.8 °F 37.0 °F 28.4 °F 57% 29.86 in 10.0 mi NE 10.4 mph - N/A   Clear
3:15 AM 42.8 °F 37.0 °F 28.4 °F 57% 29.86 in 10.0 mi ENE 10.4 mph - N/A   Clear
3:35 AM 42.8 °F 37.0 °F 28.4 °F 57% 29.85 in 10.0 mi ENE 10.4 mph - N/A   Clear
3:55 AM 42.8 °F 37.0 °F 30.2 °F 61% 29.85 in 10.0 mi ENE 10.4 mph - N/A   Clear
4:15 AM 42.8 °F 38.0 °F 30.2 °F 61% 29.85 in 10.0 mi ENE 8.1 mph - N/A   Clear
4:35 AM 42.8 °F 37.5 °F 32.0 °F 66% 29.84 in 10.0 mi ENE 9.2 mph - N/A   Clear
4:55 AM 42.8 °F 37.0 °F 33.8 °F 70% 29.84 in 10.0 mi ENE 10.4 mph - N/A   Clear
5:15 AM 42.8 °F 37.0 °F 33.8 °F 70% 29.83 in 10.0 mi ENE 10.4 mph - N/A   Clear
5:35 AM 42.8 °F 37.5 °F 33.8 °F 70% 29.83 in 10.0 mi ENE 9.2 mph - N/A   Clear
5:55 AM 42.8 °F 37.0 °F 33.8 °F 70% 29.83 in 10.0 mi ENE 10.4 mph - N/A   Clear
6:15 AM 42.8 °F 36.6 °F 32.0 °F 66% 29.82 in 10.0 mi ENE 11.5 mph - N/A   Clear
6:35 AM 42.8 °F 36.6 °F 33.8 °F 70% 29.81 in 10.0 mi ENE 11.5 mph - N/A   Clear
6:55 AM - - - N/A% - - North - - N/A   Unknown
7:15 AM 44.6 °F 38.1 °F 33.8 °F 66% 29.79 in 10.0 mi ENE 13.8 mph 19.6 mph N/A   Clear
7:35 AM 44.6 °F 37.8 °F 33.8 °F 66% 29.78 in 10.0 mi ENE 15.0 mph 18.4 mph N/A   Clear
7:55 AM 46.4 °F 39.5 °F 33.8 °F 62% 29.76 in 10.0 mi ENE 17.3 mph 20.7 mph N/A   Clear
8:15 AM 46.4 °F 39.8 °F 33.8 °F 62% 29.76 in 10.0 mi East 16.1 mph 23.0 mph N/A   Mostly Cloudy
8:35 AM 46.4 °F 41.5 °F 35.6 °F 66% 29.75 in 10.0 mi East 10.4 mph 23.0 mph N/A   Overcast
8:55 AM 48.2 °F - 35.6 °F 62% 29.75 in 10.0 mi ENE 17.3 mph 25.3 mph N/A   Overcast
9:15 AM 48.2 °F - 37.4 °F 66% 29.72 in 10.0 mi East 18.4 mph 28.8 mph N/A   Overcast
9:35 AM 48.2 °F - 37.4 °F 66% 29.72 in 10.0 mi East 16.1 mph 25.3 mph N/A   Mostly Cloudy
9:55 AM 48.2 °F - 37.4 °F 66% 29.72 in 10.0 mi ENE 15.0 mph 25.3 mph N/A   Overcast
10:15 AM 50.0 °F - 37.4 °F 62% 29.71 in 10.0 mi ENE 13.8 mph 19.6 mph N/A   Overcast
10:35 AM 50.0 °F - 39.2 °F 66% 29.70 in 10.0 mi ENE 11.5 mph 21.9 mph N/A   Overcast
10:55 AM 50.0 °F - 39.2 °F 66% 29.70 in 10.0 mi NNE 3.5 mph 21.9 mph N/A   Overcast
11:15 AM 50.0 °F - 39.2 °F 66% 29.67 in 10.0 mi ENE 13.8 mph 17.3 mph N/A   Overcast
11:35 AM 51.8 °F - 39.2 °F 62% 29.63 in 10.0 mi ENE 16.1 mph - N/A   Mostly Cloudy
11:55 AM 50.0 °F - 39.2 °F 66% 29.61 in 10.0 mi ENE 19.6 mph 25.3 mph N/A   Mostly Cloudy
12:15 PM 48.2 °F - 39.2 °F 71% 29.60 in 10.0 mi NE 20.7 mph 28.8 mph N/A   Mostly Cloudy
12:36 PM 48.2 °F - 39.2 °F 71% 29.59 in 10.0 mi NE 12.7 mph 24.2 mph N/A   Overcast
12:55 PM 48.2 °F - 39.2 °F 71% 29.59 in 10.0 mi NE 19.6 mph 24.2 mph N/A   Overcast
1:15 PM 48.2 °F - 39.2 °F 71% 29.60 in 10.0 mi North 10.4 mph 21.9 mph N/A   Overcast
1:36 PM 46.4 °F 41.9 °F 37.4 °F 71% 29.58 in 10.0 mi NNE 9.2 mph 16.1 mph N/A   Overcast
1:55 PM 46.4 °F - 37.4 °F 71% 29.58 in 10.0 mi Calm Calm - N/A   Overcast
2:15 PM 46.4 °F 40.7 °F 39.2 °F 76% 29.55 in 10.0 mi NE 12.7 mph 20.7 mph N/A   Overcast
2:35 PM 46.4 °F 39.8 °F 39.2 °F 76% 29.55 in 10.0 mi NE 16.1 mph 23.0 mph N/A   Overcast
2:55 PM 44.6 °F 38.4 °F 37.4 °F 76% 29.55 in 10.0 mi NNE 12.7 mph 23.0 mph N/A   Overcast
3:15 PM 44.6 °F 37.4 °F 37.4 °F 76% 29.57 in 10.0 mi NNE 16.1 mph 27.6 mph N/A   Overcast
3:35 PM 42.8 °F 37.0 °F 37.4 °F 81% 29.59 in 10.0 mi North 10.4 mph 21.9 mph N/A   Overcast
3:55 PM 41.0 °F 33.9 °F 35.6 °F 81% 29.60 in 10.0 mi North 12.7 mph 20.7 mph N/A   Overcast
4:15 PM 39.2 °F 33.0 °F 35.6 °F 87% 29.61 in 10.0 mi North 9.2 mph - N/A   Overcast
4:37 PM 39.2 °F 32.0 °F 35.6 °F 87% 29.61 in 10.0 mi North 11.5 mph 16.1 mph N/A   Overcast
4:55 PM 37.4 °F 30.3 °F 33.8 °F 87% 29.63 in 10.0 mi North 10.4 mph 17.3 mph N/A   Overcast
5:15 PM 37.4 °F 28.5 °F 33.8 °F 87% 29.63 in 7.0 mi NNE 15.0 mph 21.9 mph N/A   Overcast
5:35 PM 37.4 °F 29.8 °F 32.0 °F 81% 29.64 in 10.0 mi North 11.5 mph 21.9 mph N/A   Overcast
5:55 PM 37.4 °F 29.8 °F 30.2 °F 75% 29.65 in 7.0 mi NNE 11.5 mph 24.2 mph N/A Snow Light Snow
6:15 PM 35.6 °F 26.2 °F 30.2 °F 81% 29.68 in 10.0 mi North 15.0 mph 21.9 mph N/A Snow Light Snow
6:35 PM 35.6 °F 27.5 °F 30.2 °F 81% 29.69 in 2.5 mi North 11.5 mph 21.9 mph N/A Snow Light Snow
6:55 PM 33.8 °F 24.3 °F 28.4 °F 81% 29.70 in 1.8 mi North 13.8 mph 23.0 mph N/A Snow Light Snow
7:15 PM 32.0 °F 20.1 °F 26.6 °F 80% 29.70 in 2.5 mi NNE 19.6 mph 25.3 mph N/A Snow Light Snow
7:35 PM 30.2 °F 18.9 °F 26.6 °F 86% 29.71 in 2.5 mi North 16.1 mph 24.2 mph N/A Snow Light Snow
7:55 PM 30.2 °F 18.5 °F 24.8 °F 80% 29.71 in 3.0 mi NNE 17.3 mph 28.8 mph N/A Snow Light Snow
8:15 PM 30.2 °F 18.1 °F 24.8 °F 80% 29.70 in 2.5 mi North 18.4 mph 24.2 mph N/A Snow Light Snow
8:35 PM 28.4 °F 17.5 °F 24.8 °F 86% 29.69 in 1.8 mi North 13.8 mph 28.8 mph 0.01 in Snow Light Snow
8:55 PM 28.4 °F 15.8 °F 24.8 °F 86% 29.68 in 2.5 mi North 18.4 mph 29.9 mph 0.01 in Snow Light Snow
9:15 PM 28.4 °F 16.2 °F 21.2 °F 74% 29.68 in 2.5 mi North 17.3 mph 26.5 mph N/A Snow Light Snow
9:35 PM 26.6 °F 12.7 °F 21.2 °F 80% 29.69 in 1.0 mi North 20.7 mph 29.9 mph N/A Snow Light Snow
9:55 PM 26.6 °F 13.8 °F 21.2 °F 80% 29.68 in 0.5 mi North 17.3 mph 28.8 mph N/A Snow Snow
10:15 PM 24.8 °F 11.1 °F 21.2 °F 86% 29.69 in 0.8 mi North 18.4 mph 31.1 mph 0.01 in Snow Snow
10:35 PM 24.8 °F 10.0 °F 21.2 °F 86% 29.68 in 0.5 mi North 21.9 mph 38.0 mph 0.01 in Snow Snow
10:55 PM 24.8 °F 10.7 °F 19.4 °F 80% 29.69 in 0.5 mi North 19.6 mph 34.5 mph 0.01 in Snow Snow
11:15 PM 24.8 °F 11.9 °F 19.4 °F 80% 29.71 in 0.5 mi North 16.1 mph 31.1 mph N/A Snow Heavy Snow
11:35 PM 24.8 °F 11.5 °F 19.4 °F 80% 29.72 in 0.5 mi North 17.3 mph 25.3 mph 0.01 in Snow Heavy Snow
11:55 PM 23.0 °F 9.2 °F 19.4 °F 86% 29.73 in 0.2 mi North 17.3 mph 29.9 mph 0.01 in Snow Heavy Snow